Regional Weather Roundup
Issued by NWS

Home | Current Version | Previous Version | Text Only | Print | Product List | Glossary Off
Versions: 1 2 3 4 5 6 7 8 9 10 11 12 13 14 15 16 17 18 19 20 21 22 23 24 25 26 27 28 29 30 31 32 33 34 35 36 37 38 39 40 41 42 43 44 45 46 47 48 49 50

000
ASUS43 KLSX 201459
RWRMO

WEATHER SUMMARY FOR MISSOURI
NATIONAL WEATHER SERVICE SPRINGFIELD MO
1000 AM CDT MON OCT 20 2014

NOTE: "FAIR" INDICATES FEW OR NO CLOUDS BELOW 12,000 FEET WITH NO
       SIGNIFICANT WEATHER AND/OR OBSTRUCTIONS TO VISIBILITY.
       CURRENT SKY AND/OR WEATHER CONDITIONS ARE NOT AVAILABLE FOR
       CHILLICOTHE AND FARMINGTON.

MOZ001>031-035>038-043-044-053-054-201600-
...NORTHERN AND WESTERN MISSOURI...

CITY           SKY/WX    TMP DP  RH WIND       PRES   REMARKS
KANSAS CTY INT MOSUNNY   59  52  77 N12       30.06R
KANSAS C DTWN  SUNNY     61  53  75 NW3       30.06R
LEE`S SUMMIT   SUNNY     61  53  75 VRB7      30.06R
ST JOSEPH      SUNNY     59  51  75 N5        30.07R
CHILLICOTHE      N/A     60  48  64 N5        30.06R
KIRKSVILLE     SUNNY     59  48  67 N10       30.04R

$$
MOZ066>068-077>081-088>096-101>105-201600-
...SOUTHWEST MISSOURI...

CITY           SKY/WX    TMP DP  RH WIND       PRES   REMARKS
SPRINGFIELD    CLOUDY    63  52  67 W10       30.07R
JOPLIN         MOSUNNY   63  53  70 SW8       30.09R

$$
MOZ032>034-039>042-045>050-055>058-069>072-201600-
...CENTRAL MISSOURI...

CITY           SKY/WX    TMP DP  RH WIND       PRES   REMARKS
COLUMBIA       SUNNY     60  53  77 NW9       30.03R
JEFFERSON CITY SUNNY     60  53  77 VRB7      30.03S
ROLLA          MOSUNNY   60  52  74 W9        30.02S
SEDALIA        SUNNY     63  54  72 W9        30.05R
OSAGE BEACH    MOSUNNY   63  54  72 W12       30.05S

$$
MOZ051-052-059>065-201600-
...EAST CENTRAL MISSOURI...

CITY           SKY/WX    TMP DP  RH WIND       PRES   REMARKS
ST LOUIS INTL  SUNNY     64  53  67 W12       29.99S
SPIRIT OF STL  SUNNY     63  52  67 W9        29.99S
ST CHARLES     SUNNY     61  52  72 W9        29.98R

$$
MOZ072>076-082>087-097>100-106>115-201600-
...SOUTH CENTRAL AND SOUTHEAST MISSOURI...

CITY           SKY/WX    TMP DP  RH WIND       PRES   REMARKS
CAPE GIRARDEAU MOSUNNY   60  50  69 SW9       30.04S
FARMINGTON     MOSUNNY   64  52  63 W9        30.03S
POPLAR BLUFF   CLOUDY    57  49  74 SW7       30.05S
WEST PLAINS    CLOUDY    61  52  72 W8        30.07S

$$



USA.gov is the U.S. government's official web portal to all federal, state and local government web resources and services.